Theta_e
338 332 334 334 334 329 321 319 303 309 306 300 301 303 300 310 311 308 309 311 309 316 317 319 320 319 316 315 318 320 322 317 317 310 311 332 345 340 343 345 352 351 350 350 351 352 352 354 355 354 354 354 353 353 354 354 355 355 355 355 354 355 354 353 353 354 353 353 353 352 351 351 350 348 349 349 349 349 349 349 348 348 347 347 347 346 345 345 345 343 345 345 345 345 345 345 343
328 330 333 334 325 321 313 317 305 303 303 300 302 305 305 309 309 307 308 310 313 315 319 319 320 319 320 319 317 322 322 324 324 324 334 342 343 339 341 348 351 349 351 350 349 348 349 353 355 354 354 353 353 353 354 354 354 354 354 354 354 354 354 354 353 353 353 353 353 352 351 350 349 348 348 349 350 348 348 349 348 348 347 346 346 346 346 345 344 345 346 346 346 345 345 344 343
327 328 326 326 322 317 315 314 300 300 297 297 301 305 310 307 307 308 312 316 320 317 320 319 320 318 318 319 315 315 315 328 329 333 336 344 337 337 344 350 352 350 351 351 349 349 349 352 355 354 354 354 353 354 354 354 354 354 354 354 354 354 353 353 353 352 351 351 349 352 351 350 350 350 350 349 349 348 348 348 348 347 347 346 346 346 346 345 345 345 345 346 346 346 346 345 344
327 325 323 322 313 319 309 308 303 300 297 299 299 306 307 307 308 312 316 315 319 322 318 317 315 321 317 314 317 325 325 327 331 331 334 338 339 340 343 351 351 352 349 350 350 349 350 353 354 353 354 354 354 354 354 354 354 353 354 354 353 354 354 353 353 352 352 350 350 351 350 350 350 349 349 349 349 349 348 347 347 347 347 346 346 346 346 346 346 346 346 346 347 347 346 344 343
323 324 325 319 314 308 308 306 302 302 298 305 298 305 308 309 310 313 314 321 318 318 317 316 316 319 322 317 319 317 322 331 334 339 338 344 344 344 347 350 348 348 349 349 349 350 350 353 353 354 353 354 354 354 354 353 354 354 353 353 354 354 354 354 353 353 351 349 349 348 350 350 350 350 349 349 349 349 348 347 347 348 347 347 346 346 346 346 346 346 346 346 346 347 345 344 343
322 321 322 319 310 316 309 301 301 302 306 307 302 305 308 310 314 314 316 317 318 316 317 317 314 315 317 320 323 325 330 323 336 338 340 343 345 347 348 349 346 346 348 349 350 351 351 354 353 353 353 353 353 354 354 353 354 354 354 354 353 353 353 353 352 352 350 349 350 350 350 350 350 350 349 349 349 349 348 347 347 347 347 347 347 346 346 346 346 346 346 346 347 346 345 344 343
318 317 317 316 314 313 301 300 299 301 304 309 306 307 309 312 313 315 314 316 316 317 319 316 318 318 314 324 331 335 339 341 338 340 347 347 345 346 347 344 345 345 348 348 348 349 352 354 354 354 353 353 353 354 353 353 354 354 354 353 354 353 352 352 352 351 350 350 350 349 350 349 349 349 349 349 349 349 348 347 347 347 346 346 346 346 346 346 346 346 346 346 346 345 344 344 343
321 312 312 308 306 307 301 301 301 303 304 309 310 309 310 312 313 312 314 311 312 312 315 316 317 314 317 323 317 335 341 344 343 345 348 348 344 341 343 345 342 343 346 348 348 349 355 354 353 353 353 353 353 353 353 353 353 353 353 353 353 352 352 351 351 350 349 350 350 349 350 350 349 349 349 349 348 348 348 347 348 346 346 346 346 346 345 345 345 346 346 346 344 345 344 344 343
316 313 316 308 302 304 301 300 301 307 306 309 309 312 316 313 314 312 312 313 314 314 314 315 316 311 316 322 327 336 340 344 345 346 347 348 341 338 340 342 343 343 345 347 348 350 352 353 353 353 353 353 353 353 352 351 352 353 352 352 352 352 350 349 350 349 345 348 349 349 350 350 349 349 349 349 348 348 347 347 346 346 346 346 346 345 344 344 345 345 345 344 344 344 344 343 342
312 312 306 306 304 298 299 300 300 303 304 309 309 310 314 313 313 313 315 312 313 314 315 318 318 312 319 323 330 334 337 345 344 345 347 349 341 338 339 341 345 345 345 347 348 349 350 354 352 353 352 353 352 352 351 351 351 352 351 350 351 351 351 350 349 349 349 346 344 350 350 349 349 348 348 349 348 347 347 346 346 346 346 345 346 345 344 344 344 345 345 344 344 344 343 343 342
307 312 311 302 300 298 297 299 301 304 305 309 309 313 313 314 314 311 312 313 315 314 315 319 314 314 318 322 328 342 344 345 343 341 346 349 340 338 338 340 344 346 345 348 349 348 348 351 353 352 353 352 352 351 351 350 350 350 350 351 350 349 349 349 349 349 347 344 346 350 350 350 349 347 347 348 347 347 347 346 346 346 345 344 344 343 343 345 345 345 345 344 344 343 343 343 344
305 307 307 299 298 298 300 300 302 304 308 308 307 311 314 313 313 310 313 313 312 315 314 317 316 317 314 318 328 338 343 342 343 345 347 350 339 337 338 338 342 346 349 348 350 347 346 347 349 352 352 352 351 351 350 350 350 350 351 351 351 350 350 350 349 349 347 346 348 349 350 349 349 348 347 347 347 347 347 347 346 345 344 344 344 343 346 346 346 345 344 344 344 342 343 344 343
307 308 304 300 299 301 303 301 302 302 303 304 307 311 313 312 311 313 312 313 316 314 314 318 319 318 311 320 332 339 338 343 345 345 347 347 340 338 339 340 343 346 349 350 349 348 347 346 348 349 350 351 351 351 350 350 350 350 351 351 351 350 349 349 349 349 348 349 349 350 349 349 349 348 347 347 347 347 346 346 346 344 343 343 343 344 345 346 345 345 344 344 343 343 343 343 344
309 309 305 299 305 302 301 301 302 301 303 307 311 312 312 309 312 313 313 310 312 313 317 320 317 317 316 327 330 333 338 345 345 347 346 348 344 340 341 342 344 345 348 349 347 347 347 346 347 346 349 350 349 350 350 350 350 351 351 350 351 350 349 349 348 348 349 349 349 349 348 349 347 348 347 347 347 346 346 346 345 344 343 343 343 343 343 345 344 345 344 343 343 343 344 344 342
308 311 306 302 301 302 303 299 301 301 302 308 310 310 309 311 313 313 313 311 313 317 319 321 319 315 315 314 320 332 338 344 346 347 347 347 347 342 343 344 345 346 347 348 348 346 347 347 347 345 348 348 348 349 349 348 350 351 351 350 350 350 348 348 349 349 349 349 349 349 347 348 346 348 349 348 347 347 346 346 345 344 344 343 343 343 344 344 344 344 344 342 343 342 344 346 344
310 309 306 301 300 301 302 301 304 301 303 308 311 311 309 311 316 312 315 315 314 317 319 316 321 317 317 316 321 335 341 343 346 347 344 344 346 344 342 344 344 344 346 347 348 347 347 347 348 346 345 345 347 347 348 349 349 350 350 349 350 349 348 347 348 349 349 350 350 348 347 348 347 346 347 347 348 347 347 345 344 344 344 344 343 344 344 344 344 343 343 342 343 343 344 345 345
311 310 303 302 299 301 302 302 302 299 305 308 311 311 307 307 313 316 318 319 314 316 317 320 318 322 318 328 333 341 342 344 345 345 341 341 342 340 339 340 342 343 345 346 347 346 347 347 347 346 346 344 345 346 347 348 349 349 349 349 349 349 348 348 348 348 348 349 349 348 347 347 346 346 345 346 346 346 346 345 344 344 343 344 344 344 344 344 343 343 342 343 344 343 344 344 342
310 304 303 300 303 301 305 303 305 307 304 308 309 310 309 307 312 313 315 315 316 316 316 321 321 328 332 337 342 343 343 341 341 340 338 338 340 338 338 339 340 340 342 342 345 346 345 344 344 343 346 344 347 347 346 347 349 348 347 348 348 348 348 348 347 347 348 348 348 346 345 348 347 346 347 346 346 346 345 346 345 344 343 344 344 345 344 344 343 344 344 345 344 343 343 343 343
306 305 305 301 303 305 308 308 308 307 306 308 309 310 310 309 310 313 309 313 313 311 314 318 321 326 333 337 340 341 341 340 340 340 336 337 337 338 337 338 339 340 340 341 343 343 341 344 343 342 344 347 346 346 345 346 346 347 346 347 347 347 348 347 346 348 346 345 345 346 346 346 346 345 345 344 345 346 345 346 345 345 344 344 344 343 344 343 343 345 344 344 344 343 342 338 340
309 305 303 304 308 308 308 309 308 310 309 308 308 310 310 310 310 313 309 310 311 310 314 316 315 324 332 336 339 340 339 339 340 339 338 336 338 338 339 337 338 339 340 341 337 338 343 344 341 342 344 345 347 345 346 347 347 349 349 346 346 347 347 347 347 345 345 346 343 347 346 346 345 345 346 347 345 345 344 345 346 345 345 345 344 344 344 344 343 345 344 344 344 340 334 334 336
309 305 303 305 308 305 308 310 310 310 310 308 308 310 308 310 312 311 309 308 309 314 314 313 319 329 333 336 337 338 339 337 338 338 338 336 338 340 340 340 338 340 341 340 337 338 341 345 341 342 346 344 345 345 344 345 346 345 344 343 346 346 347 347 347 348 349 346 344 345 345 347 345 346 346 344 343 343 343 343 343 342 343 342 345 340 340 340 343 340 338 342 339 334 332 332 334
309 306 308 307 308 305 310 310 310 310 310 309 309 307 308 312 311 310 310 306 307 313 315 317 318 321 333 334 337 339 337 338 337 337 337 337 338 339 341 342 344 343 343 336 333 334 336 342 342 344 343 345 345 345 343 343 344 341 340 339 342 344 347 346 347 347 347 349 348 344 346 344 344 343 344 343 340 343 341 341 340 340 340 339 342 339 338 337 337 336 334 334 333 333 330 332 334
303 307 308 309 310 307 310 310 310 310 309 308 307 309 311 309 308 310 309 308 310 314 316 320 318 332 330 337 338 336 337 337 337 337 337 337 339 340 341 341 341 339 339 335 335 334 335 339 343 343 343 344 344 344 342 341 340 341 342 343 340 343 345 345 346 348 348 348 347 349 342 342 342 342 342 343 343 343 341 340 340 339 338 337 338 338 338 339 335 337 335 334 333 333 332 331 333
308 304 308 307 309 308 310 309 310 309 309 308 310 311 308 308 305 310 309 311 312 315 317 317 323 320 335 335 338 337 334 337 337 338 340 339 341 342 342 342 342 342 340 334 336 334 336 337 340 341 342 344 343 343 342 342 340 340 343 344 343 345 345 345 346 348 349 348 348 349 350 342 341 339 342 342 341 340 338 340 340 338 338 337 337 336 338 338 337 338 336 335 335 335 332 331 332
306 305 308 309 310 310 310 310 310 310 310 311 310 308 308 309 308 309 308 311 313 314 317 317 317 319 326 331 332 331 332 338 337 339 342 339 343 344 345 342 344 342 341 334 335 336 338 338 337 338 341 344 343 343 342 343 340 341 345 344 344 346 344 346 347 347 347 347 347 347 346 341 340 341 340 340 338 338 338 337 339 338 337 335 336 335 335 335 337 336 335 334 335 333 336 331 334
308 308 309 309 308 310 310 310 309 309 310 311 308 307 309 310 311 308 315 311 314 314 314 317 319 317 321 329 330 327 327 336 340 339 340 341 342 342 342 341 343 341 342 337 334 336 337 340 337 338 342 343 344 344 343 343 343 341 344 344 345 345 344 345 346 344 346 345 344 343 344 344 343 339 338 338 337 338 337 341 340 338 337 337 336 336 343 341 342 345 337 333 328 332 331 333 340
310 309 309 308 308 308 310 308 309 310 310 310 306 306 307 311 309 305 314 313 314 315 314 317 318 322 329 331 329 332 328 329 337 342 341 340 340 339 341 342 341 342 343 340 334 334 337 338 340 343 344 345 345 343 342 341 342 340 343 344 344 343 344 344 343 344 344 344 344 346 345 344 341 340 346 350 348 345 346 345 343 338 336 341 340 339 349 345 342 345 341 343 339 338 342 337 335
310 309 308 308 308 309 309 309 309 310 308 310 309 307 309 310 309 306 309 314 315 313 314 315 318 320 321 325 329 332 326 329 332 340 339 337 335 336 339 337 340 342 342 341 338 336 337 337 340 342 345 344 344 342 342 340 340 341 344 344 343 343 344 343 343 343 342 342 344 344 344 344 344 343 342 348 347 349 346 343 337 341 339 342 340 340 342 341 342 340 337 344 346 344 343 342 345
309 308 303 305 307 306 308 307 309 310 307 310 310 306 304 306 305 311 312 314 314 313 313 314 317 320 322 325 330 330 328 329 330 333 339 338 338 340 339 341 340 340 342 342 340 341 340 340 339 338 343 343 343 342 341 342 341 340 342 343 344 344 343 343 344 344 342 342 343 344 343 343 345 343 346 347 344 346 349 346 342 340 339 344 338 338 337 346 341 346 346 344 345 345 342 346 338
309 308 305 303 303 303 308 310 310 309 309 310 309 297 301 305 309 311 314 313 314 313 313 313 314 318 321 326 330 330 329 330 330 336 339 339 339 340 339 341 342 339 339 341 341 340 342 343 343 343 343 341 341 341 340 339 341 341 342 343 343 343 344 343 344 344 345 343 341 343 342 342 344 345 342 345 347 346 347 346 342 344 341 342 338 342 341 343 343 342 340 341 340 339 341 343 339
302 305 306 301 300 300 308 309 309 306 310 309 309 298 301 306 309 312 314 314 313 311 312 313 314 315 320 324 328 328 328 328 331 338 340 341 340 339 340 342 342 342 339 341 339 339 339 339 342 342 342 340 340 339 339 339 340 342 342 342 343 342 342 343 345 345 345 344 342 343 342 342 342 341 342 344 349 348 346 345 345 342 340 349 342 344 346 341 345 343 342 335 340 340 339 339 337
305 301 298 302 299 301 307 309 309 304 308 310 308 299 301 305 308 312 314 314 314 312 312 313 313 314 319 322 322 322 323 327 332 337 340 340 339 338 339 340 341 340 342 342 340 338 338 339 341 341 342 340 341 337 338 339 340 342 343 342 345 344 344 343 344 343 343 344 343 340 342 343 342 340 341 344 347 345 345 345 345 347 344 350 349 344 345 340 341 342 344 344 343 335 336 340 343
304 301 299 299 301 301 303 307 310 309 308 309 306 300 303 304 309 311 313 313 313 312 313 314 313 314 316 318 321 321 322 325 332 336 338 339 338 339 339 341 340 341 343 344 341 338 337 338 340 340 340 339 340 339 339 338 341 339 338 343 344 345 344 344 344 344 343 343 343 341 342 341 341 342 343 344 346 344 343 342 343 345 349 344 347 346 338 341 339 339 344 346 343 339 337 338 339
299 303 300 303 301 302 300 306 308 309 307 304 307 303 303 306 308 309 310 311 312 311 311 312 313 314 317 321 320 320 322 324 327 333 335 337 337 339 340 341 342 342 342 345 344 341 338 337 338 339 339 339 339 340 339 338 342 340 339 343 343 343 344 344 345 345 343 344 342 342 343 342 344 344 344 344 345 343 342 343 342 345 346 347 345 346 339 340 344 341 341 342 343 341 338 338 340
298 299 299 300 303 303 303 302 306 307 308 305 305 304 304 306 308 309 310 312 311 311 312 312 312 314 319 317 319 320 321 324 326 333 336 337 340 341 340 341 342 342 342 344 345 343 341 339 338 338 337 337 339 340 340 341 342 342 341 338 339 343 342 343 345 344 343 343 342 342 342 344 344 345 344 343 344 341 342 343 341 345 346 348 347 345 342 339 343 342 342 341 344 341 338 343 342
301 301 300 300 299 300 300 305 308 308 304 303 304 302 303 305 306 308 310 311 310 310 313 312 312 312 314 317 318 318 318 322 325 333 336 337 338 340 340 340 342 342 342 343 344 343 340 338 337 337 336 335 337 340 340 339 338 336 336 338 338 339 340 341 343 344 342 344 342 342 342 341 343 345 344 343 341 341 342 342 342 347 348 349 346 342 338 335 339 341 341 340 340 339 337 344 345
304 303 302 300 300 301 304 305 307 309 305 303 304 304 304 305 306 308 309 310 309 309 310 310 312 312 314 316 317 318 325 326 328 332 337 338 339 340 341 340 341 342 342 342 342 343 340 337 335 334 335 335 335 335 336 337 335 335 337 335 334 336 337 340 341 341 340 342 342 343 342 341 340 344 345 343 342 344 344 344 345 347 347 345 344 343 342 341 341 344 342 340 340 338 338 342 345
303 302 301 299 301 299 303 303 306 308 304 302 304 304 304 305 307 308 309 310 308 309 310 312 311 313 318 316 316 318 321 320 326 333 336 337 337 340 341 340 340 338 339 340 340 341 342 339 337 337 337 335 338 336 337 337 338 336 335 335 336 338 338 338 340 341 339 337 340 340 339 339 339 341 344 346 345 346 346 345 344 345 347 345 348 347 345 346 347 342 341 341 341 339 338 341 345
303 300 300 299 300 302 304 305 306 306 305 302 304 302 303 305 306 308 308 308 309 311 311 310 315 314 314 313 315 320 319 321 325 329 330 333 336 340 339 339 339 340 340 340 341 341 342 341 340 339 339 338 337 338 338 337 338 340 338 338 337 337 340 341 341 341 341 340 340 340 338 339 340 342 344 345 345 346 345 347 345 347 346 347 347 346 346 346 347 345 343 341 340 339 339 338 338
301 300 298 297 301 299 297 303 305 306 304 303 304 302 303 306 307 308 309 309 310 312 312 311 311 314 313 314 316 317 316 320 326 328 331 333 336 338 338 338 339 340 339 339 340 340 341 341 342 342 341 341 340 338 338 339 339 339 341 342 342 341 340 341 341 343 340 340 338 339 338 342 342 343 343 343 343 342 343 345 348 348 347 348 345 344 345 344 344 343 344 346 345 339 339 333 337
303 302 300 299 300 301 301 300 304 305 306 305 303 301 301 303 303 305 310 312 311 312 312 313 314 313 314 316 316 317 318 326 324 327 333 335 336 337 337 338 340 338 338 338 339 339 339 340 343 342 342 342 341 339 337 337 338 337 339 340 341 339 338 337 337 337 338 337 338 337 339 343 344 345 345 345 343 344 346 345 346 347 347 347 344 342 343 343 345 345 344 343 337 335 332 334 335
301 304 303 303 304 303 303 303 302 300 299 304 302 294 295 303 305 305 308 308 309 311 311 311 313 320 315 314 321 325 317 330 325 325 330 336 337 338 338 338 338 338 338 339 340 340 340 340 342 343 342 342 341 341 340 339 336 334 333 332 330 331 331 331 330 331 333 333 333 338 341 344 344 344 346 344 343 344 344 345 346 345 345 346 340 340 343 344 343 343 343 339 336 338 335 332 332
299 301 307 306 305 304 303 302 301 296 294 301 305 295 293 302 302 305 307 307 307 311 312 310 312 312 313 314 314 314 314 319 326 330 333 335 338 338 338 337 337 337 339 341 341 341 341 340 342 343 342 342 342 341 340 338 337 336 335 333 332 331 331 331 334 335 335 336 339 340 341 343 341 343 343 343 344 344 345 345 345 345 344 345 343 341 339 342 339 338 341 338 338 337 337 334 334
299 306 307 306 305 303 302 302 301 299 303 303 303 300 294 294 300 305 307 306 306 308 310 313 312 312 312 313 314 316 316 318 328 331 333 337 339 339 337 338 339 338 341 341 341 341 341 341 341 343 342 342 342 342 340 340 338 337 336 335 334 333 333 333 336 337 341 340 339 341 343 344 343 342 343 340 342 343 343 344 345 345 344 343 343 342 339 343 340 342 343 340 338 337 334 335 335
303 307 308 305 304 304 304 302 300 300 299 295 299 303 296 296 302 306 307 303 305 307 310 311 311 312 314 316 313 316 317 319 325 330 334 337 339 341 341 339 340 341 341 340 340 341 342 342 341 342 342 342 344 342 341 341 340 339 337 336 335 336 336 336 340 340 339 341 340 342 342 342 343 344 342 343 342 341 342 344 343 343 343 343 344 343 341 342 341 338 337 337 336 336 337 337 337
307 308 308 307 307 306 304 302 301 300 297 293 297 301 294 295 301 301 307 304 304 306 309 310 311 313 312 314 315 317 317 321 320 328 336 338 340 343 343 342 342 340 342 342 342 342 342 342 341 341 340 342 343 342 341 341 341 340 338 337 335 334 335 337 340 338 338 340 340 341 342 343 342 343 344 342 341 340 341 341 342 341 342 341 343 343 342 342 339 339 337 337 337 334 335 337 337
309 307 305 304 304 303 304 303 302 299 292 295 299 301 298 292 298 301 302 309 307 309 309 311 312 317 317 318 319 318 315 318 318 325 336 338 340 343 344 342 342 343 343 342 342 342 341 341 340 339 340 341 343 342 342 340 340 340 338 338 336 335 335 337 336 335 337 339 338 339 341 342 344 343 343 343 342 340 340 341 340 340 343 344 344 342 343 341 337 339 339 338 337 336 336 336 334
307 304 302 301 301 303 302 301 301 293 290 297 301 301 301 291 297 303 305 309 309 312 311 312 315 316 317 318 319 319 322 318 318 319 331 337 339 343 344 342 342 342 342 341 341 341 341 340 340 339 340 342 343 342 342 341 340 339 339 339 337 337 337 336 333 333 335 337 338 337 340 342 340 342 344 344 345 343 344 342 342 342 341 342 341 343 344 338 336 338 340 338 336 336 337 336 335
305 303 302 296 293 295 291 296 290 291 291 298 302 304 299 297 302 304 317 313 312 314 315 316 315 314 317 316 317 318 320 321 323 321 331 334 339 341 341 342 342 341 341 341 341 341 341 340 340 338 338 341 342 341 341 341 341 339 340 339 339 339 337 335 337 336 337 337 338 338 338 338 339 339 340 339 340 341 342 344 344 341 341 343 343 341 344 343 341 341 339 337 337 337 336 335 333
303 301 299 295 291 289 286 290 293 294 299 304 301 304 297 301 303 307 307 310 313 316 317 319 317 316 317 316 317 317 319 320 323 324 324 334 342 341 342 342 341 341 341 341 341 341 340 340 340 338 338 340 342 341 340 341 341 341 341 341 340 339 338 337 337 338 339 338 339 338 338 338 338 339 339 339 340 340 341 342 344 343 344 344 343 343 342 344 342 341 339 339 337 337 336 335 334
303 306 302 301 296 293 286 291 287 290 294 299 304 297 295 295 304 308 309 311 315 317 318 319 319 318 319 317 317 317 318 320 322 324 326 331 340 343 343 342 341 341 342 341 341 341 340 339 339 338 338 339 341 341 341 340 340 341 341 341 340 339 338 338 338 339 338 338 339 338 340 341 341 341 341 342 342 341 341 341 341 343 345 346 345 343 343 344 343 341 340 340 340 337 335 335 332
305 305 305 299 297 302 292 295 294 294 294 294 297 295 302 301 308 310 312 312 313 316 316 318 317 318 318 317 317 317 318 319 320 323 326 331 340 344 342 343 342 343 343 343 342 341 340 340 339 339 338 339 339 340 340 340 340 341 341 341 341 341 340 340 339 339 341 341 341 341 341 343 343 344 344 344 343 342 342 341 341 341 342 343 344 343 343 341 341 340 341 342 340 341 338 335 334
302 302 297 301 307 303 294 297 300 298 294 290 297 298 301 306 307 310 312 312 311 313 314 315 315 316 318 317 317 318 318 318 319 321 324 330 334 344 342 341 341 344 344 344 343 343 342 341 339 338 339 339 339 340 340 340 341 340 340 340 341 341 341 340 339 340 341 342 342 342 342 343 344 345 345 345 345 343 343 342 340 340 341 343 344 343 343 343 342 343 339 339 337 340 340 335 336
303 297 301 306 308 305 298 290 292 291 289 290 297 294 296 297 292 309 308 308 310 311 312 314 316 315 315 316 318 318 319 319 319 320 324 327 332 335 339 343 343 344 345 345 344 345 344 343 341 339 339 339 339 339 340 340 340 340 340 340 341 341 341 341 341 341 342 342 342 343 342 342 342 344 345 343 343 343 344 343 342 342 343 344 344 343 342 342 343 341 341 339 340 341 339 338 338
303 301 308 298 291 293 299 294 286 286 286 288 294 296 297 299 300 304 304 306 309 309 311 312 312 313 314 315 316 318 319 320 319 319 320 324 328 333 335 336 344 348 345 340 339 338 340 342 343 341 339 340 340 339 340 340 341 340 340 341 341 341 342 342 342 342 342 340 340 341 342 342 343 343 343 344 344 343 344 343 343 342 343 343 343 344 343 342 342 340 340 340 342 343 340 337 336
308 308 303 305 300 296 293 292 295 293 287 287 289 294 291 301 302 307 306 310 310 308 309 309 311 312 313 313 314 314 315 318 317 319 322 323 325 329 332 336 333 342 340 337 336 336 335 338 342 341 341 341 340 340 340 339 340 340 341 341 341 341 341 341 342 341 341 340 340 340 340 341 342 343 343 344 344 343 343 342 342 342 342 342 342 343 343 343 343 342 341 341 341 341 341 337 338
299 299 298 300 301 304 301 301 295 292 288 289 288 287 293 303 309 308 309 310 310 311 310 311 313 315 314 314 316 317 315 319 320 321 321 323 325 327 331 334 332 335 344 340 339 336 336 338 340 341 340 340 340 340 340 340 340 340 341 340 341 341 341 342 342 342 341 340 340 340 340 341 342 341 343 344 343 342 342 343 342 341 340 341 342 342 343 343 342 341 341 341 340 339 338 339 340
301 300 297 300 298 295 291 289 298 296 293 289 288 287 296 307 309 309 311 311 310 311 311 311 311 312 316 316 319 319 319 320 321 324 324 325 325 324 321 325 333 334 336 340 337 338 338 335 336 340 340 338 338 339 339 340 340 340 340 340 341 341 342 342 343 342 341 340 340 340 340 341 341 342 342 342 342 343 342 343 341 340 341 341 341 341 343 342 341 340 340 342 341 339 338 339 340
Wind_Speed
10 9 9 9 9 8 8 6 8 2 7 9 9 4 7 10 7 11 7 23 4 10 8 9 11 9 7 2 15 12 13 10 8 4 1 1 7 14 10 4 6 9 10 9 9 9 9 10 11 12 11 11 11 11 10 10 10 10 11 10 10 9 10 9 9 9 9 10 10 11 11 10 10 9 8 8 11 11 10 11 12 13 13 13 13 14 14 13 13 13 14 14 14 14 15 15 14
9 10 11 9 9 7 7 7 5 8 6 8 5 10 8 10 6 9 6 5 11 5 3 7 9 10 8 9 10 11 10 9 7 4 2 3 13 8 2 2 7 9 8 9 8 8 10 10 11 12 13 13 12 12 12 11 12 12 11 10 10 9 9 10 9 9 9 9 11 11 10 10 10 9 8 10 11 11 11 12 12 12 13 13 13 13 13 13 13 13 13 13 14 14 14 14 13
9 10 11 9 8 8 8 6 8 3 8 3 5 6 15 14 13 8 11 11 11 9 9 8 9 9 8 11 8 8 3 5 6 6 4 7 8 1 3 4 6 9 8 7 9 9 9 11 12 14 14 14 14 13 12 12 11 12 10 11 10 10 10 9 10 9 9 10 7 9 9 10 11 10 10 11 12 8 11 9 12 12 13 13 13 13 13 13 13 12 12 12 14 13 13 12 11
9 9 10 8 7 5 8 7 8 8 5 3 5 10 5 12 15 19 15 13 14 13 11 2 4 5 7 7 6 11 5 4 2 3 4 5 6 9 7 5 5 5 6 5 8 8 8 12 12 12 12 13 12 12 11 10 10 10 10 10 10 10 10 9 10 9 11 10 8 6 9 9 9 10 11 11 12 10 11 9 12 13 13 12 12 12 12 12 12 11 11 12 12 12 11 10 9
9 9 10 10 8 7 6 6 7 8 4 3 6 10 10 6 11 18 12 11 3 7 8 5 3 5 8 6 2 2 2 3 4 6 5 9 14 11 8 7 6 6 5 7 7 6 7 12 10 9 11 11 11 11 10 10 10 9 9 9 10 9 10 9 10 10 11 11 8 4 8 8 9 11 11 11 12 12 10 10 11 12 12 12 12 12 12 11 11 11 10 10 10 10 10 9 9
10 10 10 9 7 2 6 7 5 5 5 4 5 6 7 6 11 7 18 2 7 2 6 5 4 4 5 4 3 3 4 1 2 5 4 10 14 11 7 5 4 3 3 3 4 3 7 11 10 10 10 11 11 11 10 10 10 10 9 9 9 9 9 9 9 10 11 11 9 8 9 8 10 11 11 11 11 11 11 10 10 11 11 11 11 11 11 11 11 10 10 9 9 8 8 8 7
9 9 8 10 10 7 8 7 4 3 9 12 8 10 12 11 11 8 12 10 7 6 1 5 3 9 5 4 6 6 6 4 2 5 5 14 16 10 3 1 4 4 3 3 4 4 9 11 11 10 10 10 10 10 10 10 10 10 10 9 8 8 9 9 9 11 12 11 9 9 9 9 10 11 11 11 12 11 11 10 10 10 11 11 10 10 10 10 10 10 10 9 8 7 7 7 6
10 8 5 7 8 5 9 7 3 5 7 12 12 12 13 12 14 14 16 8 3 2 2 3 1 3 6 7 2 5 7 6 7 8 8 11 18 10 1 3 2 4 3 4 5 5 10 12 11 10 11 11 11 10 9 9 9 8 8 8 8 8 8 7 9 9 8 10 10 8 9 10 10 11 11 11 11 11 11 10 9 9 9 10 10 9 9 10 10 9 9 8 7 7 5 5 5
9 9 5 7 8 7 8 9 4 4 7 14 11 11 15 10 2 4 11 3 7 3 0 1 5 6 4 5 8 4 4 6 6 8 7 9 20 11 3 6 3 5 4 5 6 6 8 10 10 10 10 10 10 10 9 9 8 8 7 8 8 8 8 6 10 10 7 7 8 11 10 10 10 11 11 11 11 11 11 11 10 9 9 9 10 9 8 9 9 9 8 7 7 5 5 4 4
8 6 6 7 7 8 5 6 3 7 12 13 20 19 18 3 7 3 16 9 6 1 2 2 5 6 10 10 6 2 4 5 7 7 7 9 20 12 6 8 5 5 5 5 6 8 7 12 10 9 9 10 10 10 10 9 8 7 8 7 8 10 11 11 9 9 10 6 4 10 10 10 10 10 10 11 11 10 10 10 9 9 9 9 9 9 9 7 9 9 8 7 5 5 4 3 2
9 8 6 7 6 7 6 5 10 2 13 3 3 1 3 3 1 7 5 3 5 13 9 10 6 7 8 6 2 1 4 4 6 8 7 9 21 11 8 7 5 5 5 7 8 8 8 8 11 10 10 10 10 9 9 9 8 8 8 9 10 11 10 10 9 8 10 9 6 9 10 11 11 11 11 10 10 10 10 10 9 8 7 6 6 6 7 10 10 8 7 5 5 3 2 2 1
8 7 8 6 7 5 7 2 11 9 12 5 9 11 8 7 4 6 4 10 2 10 5 3 1 4 5 5 4 3 5 6 6 8 7 8 17 11 11 5 5 6 5 6 7 8 9 9 9 9 11 11 10 10 9 9 9 9 10 10 11 12 12 12 10 9 10 9 8 9 11 11 10 10 10 11 10 10 10 10 9 8 7 7 7 8 9 11 9 7 6 5 3 2 2 1 1
8 5 9 6 6 6 8 6 5 5 4 8 2 5 5 6 7 8 5 9 13 13 9 8 5 10 2 5 4 7 8 5 6 8 8 8 15 7 8 6 7 7 7 7 6 7 9 9 8 9 8 9 9 11 10 10 10 10 10 11 12 12 11 10 11 9 9 11 10 10 11 11 11 10 11 11 10 10 10 9 9 8 8 7 8 9 9 8 8 7 5 4 3 2 1 1 1
9 7 6 9 7 8 8 9 7 8 9 2 3 9 7 6 6 7 4 1 6 6 4 7 4 3 5 7 6 8 8 7 8 9 9 8 14 8 8 7 8 8 8 9 8 8 9 9 8 9 9 8 7 8 10 11 11 11 11 11 12 12 11 10 9 7 10 11 11 11 11 10 10 10 10 11 10 9 10 9 8 8 8 8 8 10 9 7 7 6 4 4 3 2 2 1 0
9 7 10 3 5 5 8 7 5 6 5 8 8 8 6 6 7 3 7 6 5 5 3 7 2 3 3 5 5 10 10 9 10 9 8 9 13 10 8 6 7 7 8 10 10 8 9 9 8 9 10 9 9 7 6 9 11 11 12 13 12 12 11 10 8 8 11 11 11 11 10 10 10 11 10 10 9 10 11 10 9 9 9 9 9 10 8 8 7 6 6 5 4 4 2 1 0
7 6 5 5 6 8 5 8 2 2 2 7 7 6 6 5 5 8 8 4 6 6 2 4 3 1 1 2 4 13 14 12 9 9 9 10 11 9 8 7 7 7 7 8 7 7 8 8 7 7 8 10 8 7 7 8 10 12 11 11 12 12 10 10 8 7 11 11 11 13 12 10 8 8 10 9 10 11 11 9 10 9 9 9 10 10 9 9 7 7 6 5 4 4 3 2 2
4 3 4 5 7 7 3 6 3 2 9 10 7 8 8 7 3 9 7 2 5 2 3 5 6 4 3 6 10 17 14 12 11 10 10 9 9 8 6 5 6 7 6 9 8 8 6 8 6 3 7 8 7 7 6 7 8 12 10 13 12 12 11 11 10 8 10 10 11 13 11 7 5 4 5 4 10 8 10 10 11 10 9 10 10 9 9 9 8 7 6 5 5 4 4 5 5
3 6 5 5 3 10 4 12 6 9 8 2 10 6 8 6 5 4 8 5 4 6 5 14 17 16 10 11 13 13 14 13 12 12 10 9 9 9 8 7 8 8 8 9 9 7 7 6 3 2 2 7 5 5 5 5 6 8 9 9 8 8 9 9 8 7 9 6 11 9 6 5 5 5 5 7 5 6 8 11 11 10 10 10 10 10 9 9 8 7 7 6 5 5 6 4 5
6 5 3 4 6 1 2 5 4 4 9 9 10 9 9 8 7 2 6 4 7 5 9 8 9 5 9 9 12 12 12 11 13 11 12 12 10 11 10 9 8 8 9 8 7 6 6 5 4 4 5 5 7 5 5 6 7 5 7 8 7 8 7 8 7 8 7 7 8 8 5 4 6 4 5 5 6 10 9 11 11 11 10 10 10 10 9 8 8 8 7 7 6 6 5 6 6
7 6 3 3 8 4 5 1 11 11 6 11 6 5 6 10 8 5 9 5 4 4 10 8 9 8 9 11 11 11 11 11 11 11 12 12 11 10 9 8 9 10 9 7 6 5 3 6 6 4 2 5 5 4 3 4 4 4 4 0 4 4 6 6 6 4 5 4 8 5 5 5 4 4 7 12 8 4 6 10 11 10 10 10 10 8 8 8 9 8 8 7 5 4 5 6 7
9 6 9 7 13 7 9 6 6 7 9 9 8 8 8 11 9 9 10 9 9 6 3 8 11 14 13 13 12 12 11 11 11 10 10 11 10 8 7 6 8 8 7 10 5 5 4 4 5 4 4 3 4 2 3 4 3 5 3 1 1 4 4 5 4 3 2 5 5 5 6 5 3 3 4 4 2 5 5 4 6 6 5 6 10 5 5 6 6 6 5 5 4 6 8 7 7
6 8 11 11 5 12 9 11 7 9 1 5 10 11 11 8 7 11 10 9 6 4 3 7 9 11 11 11 13 11 11 11 11 11 11 10 10 8 6 5 5 6 7 10 8 5 8 6 6 5 3 3 4 5 4 3 4 4 3 3 4 5 4 4 3 3 2 1 2 5 5 5 4 3 3 5 6 5 6 6 7 6 6 7 8 6 6 6 6 6 6 6 6 6 7 7 5
7 8 13 13 9 6 7 7 7 9 10 10 9 10 9 9 10 9 9 9 9 11 3 11 12 14 13 13 10 11 12 12 11 11 10 10 7 7 6 5 5 6 7 11 8 8 7 5 5 3 6 4 5 6 3 4 3 3 5 5 6 5 3 4 3 3 3 2 2 1 6 4 5 4 5 6 6 5 4 7 7 8 8 8 8 7 8 7 7 7 6 7 7 8 9 10 8
5 9 10 10 9 9 7 9 8 11 13 12 10 12 11 10 11 7 10 8 11 7 3 7 12 9 14 13 11 11 11 11 11 10 8 8 7 6 6 6 5 5 7 12 7 6 4 6 4 4 3 5 7 7 5 5 4 3 5 7 7 6 5 4 4 3 3 2 1 2 2 5 5 5 6 7 7 7 10 9 9 8 8 7 7 9 7 7 8 7 9 9 9 10 9 5 3
9 9 11 12 5 8 11 11 12 11 11 11 14 10 10 10 11 9 11 9 11 10 2 8 5 6 9 9 6 4 7 7 9 9 6 6 5 5 5 5 5 4 6 12 7 6 5 7 5 3 4 5 6 6 7 3 6 4 5 5 5 6 5 4 3 3 2 1 0 2 3 5 4 4 6 7 8 9 8 8 6 6 6 5 6 8 7 9 8 9 7 6 4 4 3 4 2
10 10 11 11 11 12 11 12 12 13 10 10 9 11 9 11 13 13 2 6 11 12 8 4 7 3 10 13 12 11 8 6 6 8 8 6 6 7 6 5 6 5 6 12 10 5 3 6 8 7 7 6 7 6 6 6 5 5 4 5 5 6 4 4 3 2 2 2 1 2 4 4 3 5 7 7 7 8 8 5 7 6 6 5 6 6 3 3 3 1 3 3 7 4 5 4 1
12 11 9 11 12 14 13 14 12 12 10 7 10 10 11 11 11 6 6 8 6 6 4 5 6 5 9 7 7 6 4 4 7 4 6 6 6 7 6 6 5 6 10 11 10 6 6 7 8 8 7 7 6 6 6 6 7 7 6 4 4 5 5 4 4 2 2 2 1 1 3 6 8 11 7 2 2 2 2 2 2 6 8 3 3 3 0 1 3 1 2 1 3 2 0 3 2
12 10 12 14 15 15 15 15 17 13 11 8 4 9 10 12 9 7 6 10 6 5 9 6 6 7 9 8 7 8 8 7 9 8 9 9 7 8 7 7 6 6 9 11 10 9 7 8 7 5 7 7 7 8 7 7 6 6 6 5 5 5 5 4 4 3 3 2 2 1 4 5 4 2 9 4 3 3 1 2 4 3 4 3 4 3 3 3 3 2 3 1 2 2 1 2 2
12 13 13 15 16 15 15 15 14 10 11 5 4 9 14 14 15 11 8 8 1 7 8 8 8 7 13 11 10 10 9 8 9 10 10 9 7 7 8 7 7 7 8 10 10 10 11 11 9 8 7 8 8 6 5 4 4 5 6 6 6 6 5 4 4 5 4 4 3 3 4 4 4 2 5 4 3 3 2 3 3 4 4 2 4 4 5 2 3 1 1 2 2 2 3 1 1
13 12 11 15 14 16 18 15 13 11 7 6 3 9 8 5 6 4 3 6 5 8 7 8 6 6 11 12 11 9 9 8 10 11 10 10 8 8 8 8 6 7 8 9 11 10 7 5 8 7 7 7 6 4 4 4 6 6 5 4 6 5 5 5 4 4 5 4 3 3 4 4 3 2 3 6 3 3 2 3 5 3 4 4 6 4 4 3 3 3 3 3 4 3 2 2 4
12 13 11 10 11 10 16 14 16 12 4 6 9 9 8 10 3 1 4 4 8 8 8 7 8 7 8 12 11 10 12 11 11 11 11 10 8 8 9 8 7 6 7 12 12 11 9 6 6 7 7 7 7 5 4 4 5 4 4 3 4 5 4 5 4 3 3 4 4 2 5 4 3 3 5 5 2 2 2 4 5 4 4 2 4 3 2 4 2 2 3 3 3 2 1 3 3
11 11 11 11 13 13 8 2 7 8 8 11 6 8 9 11 8 9 10 10 8 6 5 9 6 6 8 14 11 8 9 10 10 12 10 11 10 9 10 10 8 7 6 13 13 11 11 10 7 7 8 8 7 5 3 2 4 3 2 4 3 5 4 5 4 4 4 3 4 2 4 5 5 6 6 6 2 3 3 3 4 4 4 1 1 2 2 3 3 3 2 2 0 2 2 2 2
11 12 10 10 11 14 11 15 7 13 8 6 8 9 9 11 12 9 6 11 12 11 5 8 8 8 8 10 11 11 10 11 9 11 11 11 11 10 9 10 9 8 5 11 15 13 12 13 10 11 10 10 8 7 7 6 3 3 2 3 4 5 5 4 4 3 3 3 4 4 5 4 5 7 8 4 3 3 2 3 4 5 2 2 2 3 4 4 3 3 2 1 1 2 1 3 3
10 9 9 8 9 9 7 8 12 14 13 8 10 9 10 10 11 10 15 12 14 6 9 7 7 7 5 6 10 10 9 10 12 11 14 13 11 12 10 10 10 9 7 6 13 14 14 12 10 9 9 8 5 8 6 6 4 4 4 2 3 4 4 4 4 4 4 4 5 6 5 6 6 6 6 5 4 3 3 4 4 6 3 2 3 2 4 3 3 3 3 2 2 2 2 2 2
8 9 9 10 11 14 13 7 7 9 9 11 4 7 10 12 13 15 16 11 10 8 8 6 6 5 6 8 9 6 9 11 11 11 15 13 10 9 10 10 10 9 7 6 9 11 10 11 9 9 7 7 6 6 7 7 7 4 3 1 4 5 3 4 4 4 4 3 5 5 6 6 5 7 7 5 4 4 4 4 4 6 3 2 2 2 2 3 3 3 3 3 2 3 4 1 2
16 15 12 14 12 11 12 11 12 12 13 13 4 7 9 13 15 14 13 13 14 8 13 10 8 7 6 8 8 7 8 11 11 12 15 13 9 9 9 10 9 8 8 7 7 11 10 9 8 9 9 8 6 7 6 6 6 5 6 6 6 6 5 6 5 4 4 4 5 6 7 5 5 6 7 7 5 6 6 5 6 5 2 1 2 3 3 4 4 3 3 3 3 3 3 2 0
17 16 16 13 13 13 13 14 15 12 14 14 14 10 9 11 12 13 14 9 14 15 13 7 7 7 7 6 9 8 5 5 13 13 13 11 11 11 10 10 9 9 8 9 8 9 12 9 8 10 9 10 8 7 6 7 7 7 5 7 6 6 6 6 6 5 5 4 6 5 4 3 5 7 8 8 8 7 6 6 5 3 2 3 3 4 4 4 4 2 3 3 3 3 3 2 2
16 13 13 13 13 13 13 14 12 12 12 13 16 13 11 12 14 15 15 13 10 11 12 10 11 5 5 7 7 9 10 8 13 11 12 11 11 12 10 9 10 11 9 10 9 9 13 13 11 8 8 8 8 8 6 6 7 8 8 8 7 7 6 6 6 6 5 1 7 5 4 6 8 10 9 7 6 7 5 4 5 4 4 3 2 2 3 3 1 2 3 2 2 2 2 2 3
12 11 11 12 12 13 15 14 13 14 11 11 15 15 13 13 14 12 12 13 11 11 13 16 3 8 7 8 8 6 7 8 10 14 14 13 14 13 10 9 10 10 10 9 9 9 9 13 13 12 10 10 9 7 7 7 7 6 7 6 7 5 6 5 3 4 6 8 8 5 7 11 11 9 8 5 5 5 5 4 4 4 3 3 3 3 2 2 1 2 1 2 2 2 1 7 5
11 11 11 11 12 12 10 10 14 14 12 11 8 10 10 13 13 14 14 15 13 10 12 16 12 10 7 6 6 7 8 9 12 16 14 14 13 13 11 10 10 10 10 10 9 10 9 8 12 12 13 13 12 10 9 8 8 4 4 5 6 4 3 3 3 4 5 5 5 6 9 11 11 9 8 9 8 5 6 6 3 2 4 3 3 2 1 1 1 1 2 1 1 3 3 2 5
12 14 13 12 13 13 12 11 14 18 17 15 13 9 10 12 14 11 9 8 12 9 15 14 8 3 3 5 8 7 9 10 14 14 14 14 14 15 13 11 11 11 11 11 11 10 8 10 10 13 11 10 10 13 11 9 7 6 5 5 4 3 2 1 1 2 5 6 6 7 13 10 8 8 6 7 6 8 6 5 5 4 3 3 3 2 2 1 1 0 1 3 7 3 4 1 1
11 14 14 14 16 16 15 15 14 10 12 11 12 11 10 10 10 5 6 8 11 10 9 9 9 4 8 10 5 3 7 9 15 16 17 16 15 14 12 13 13 12 12 12 10 10 9 9 9 11 10 9 10 12 12 10 9 9 7 8 8 6 5 4 6 7 6 8 9 10 8 6 6 6 5 7 7 6 6 5 5 4 4 3 4 3 2 2 1 1 4 5 4 2 5 2 1
11 10 14 15 16 15 13 13 11 9 10 9 11 13 8 6 11 9 7 10 13 10 7 10 10 5 10 11 9 9 12 5 12 15 16 16 14 15 13 13 14 13 12 10 10 10 10 9 9 10 9 9 9 11 11 10 10 9 11 9 8 9 7 6 6 7 7 8 6 6 6 6 7 7 6 5 6 6 4 4 5 6 5 4 4 3 1 1 2 1 3 4 2 3 1 2 3
12 12 15 15 15 12 12 12 11 11 11 14 16 12 11 10 10 16 8 9 11 10 7 6 7 10 12 12 10 10 7 7 12 15 15 15 16 16 17 15 13 13 11 11 11 10 11 10 10 11 9 9 10 10 13 12 11 11 11 9 8 8 8 8 9 7 5 4 5 7 5 6 6 6 6 6 6 5 5 5 4 5 5 4 4 5 4 2 2 2 4 3 5 2 1 2 2
11 12 11 13 16 15 16 14 12 12 12 11 11 13 11 9 9 9 6 8 9 9 3 2 7 7 6 4 11 9 5 4 14 14 15 16 16 17 14 15 13 12 11 12 12 11 10 9 10 10 10 10 9 13 12 12 11 11 11 10 9 8 8 6 5 5 5 6 6 6 5 5 4 4 5 4 4 5 5 4 5 5 5 4 4 4 4 4 3 5 5 5 5 1 3 2 3
13 12 12 13 14 13 13 12 12 12 12 11 11 11 11 10 6 8 3 6 2 8 5 8 6 5 6 7 11 10 7 3 6 17 17 15 16 15 15 13 13 12 10 10 11 10 10 10 9 11 10 9 9 13 12 13 12 11 11 11 11 9 8 7 6 5 6 5 5 5 5 4 5 4 3 3 4 5 5 5 4 5 5 5 4 3 5 5 3 5 6 6 6 9 5 5 3
14 13 14 14 14 13 13 12 12 12 9 12 14 16 14 12 8 8 6 2 3 1 4 2 5 16 14 15 15 9 4 5 2 9 17 15 12 14 13 14 13 11 9 10 10 11 11 10 11 11 11 9 11 12 13 13 11 11 11 10 10 10 10 8 6 6 5 5 5 5 4 4 3 3 4 5 4 5 5 4 5 4 3 2 5 4 6 5 3 4 6 7 6 6 6 5 4
14 11 11 12 13 11 11 10 11 8 10 11 15 14 13 12 3 3 8 10 4 5 9 17 16 16 16 14 13 17 17 9 7 15 10 9 12 11 11 13 13 12 12 11 10 11 12 11 11 12 12 11 11 12 12 12 11 11 10 10 10 9 8 8 9 8 7 7 6 5 5 4 4 3 2 2 2 3 2 4 4 3 3 3 4 4 6 6 5 5 5 6 7 6 5 5 4
14 13 11 11 9 7 7 8 6 7 10 10 11 13 7 5 4 11 5 11 16 16 12 13 14 15 13 13 13 14 11 15 15 11 7 11 12 11 13 12 11 13 12 13 12 11 12 12 14 13 12 12 12 12 12 12 11 10 10 11 10 8 8 8 7 7 7 6 6 5 5 5 4 4 4 4 4 5 3 2 2 4 5 5 4 4 6 8 9 7 6 6 5 7 6 5 4
12 10 7 9 8 6 6 8 7 7 11 3 9 10 10 4 6 2 7 13 12 15 12 12 15 13 11 11 12 11 11 13 10 10 10 2 5 11 12 12 12 11 13 13 12 11 11 12 14 14 13 12 11 12 12 12 12 11 10 10 9 9 8 10 8 7 7 6 6 6 6 6 5 6 5 6 5 5 4 4 3 4 4 4 4 4 5 7 7 7 6 6 6 5 4 5 4
11 9 10 7 9 3 4 6 5 8 7 11 5 5 4 4 6 12 3 7 14 11 13 11 11 12 11 12 13 13 13 12 9 10 10 6 6 8 9 10 9 10 12 13 11 11 10 12 14 15 14 13 13 13 12 13 11 11 10 9 9 8 8 8 8 8 8 8 7 7 7 6 6 6 7 6 7 7 6 5 4 3 2 2 2 4 4 6 6 5 5 5 6 6 6 5 5
10 10 8 9 9 4 11 6 8 10 9 8 7 6 3 6 5 7 6 7 9 11 10 14 12 11 12 12 12 11 11 12 11 10 10 8 0 5 5 6 8 9 12 11 12 11 10 11 13 15 15 15 15 15 14 13 12 11 11 10 10 9 8 8 7 7 7 8 7 7 6 6 6 5 5 5 7 7 6 5 4 3 3 4 4 4 5 6 6 5 4 4 5 5 6 6 5
3 6 7 7 6 10 5 6 10 11 9 9 5 10 10 9 10 8 3 3 9 10 10 12 13 12 11 10 10 10 10 10 9 10 10 9 5 4 7 8 8 8 10 11 11 11 11 10 12 14 14 14 13 14 13 12 12 12 12 11 10 9 9 9 9 9 8 8 7 6 5 5 6 5 5 3 3 6 6 6 6 6 6 5 4 5 4 6 7 6 6 5 5 5 6 7 6
9 9 8 11 12 13 7 7 4 6 9 6 6 11 11 5 4 4 7 8 9 8 8 10 10 12 9 8 9 9 9 9 10 11 10 10 9 6 2 10 9 10 10 11 10 9 9 9 11 14 15 16 14 13 14 13 13 12 12 12 11 10 9 9 8 8 8 7 7 6 6 5 5 5 5 5 5 5 5 5 4 5 4 4 4 4 4 4 5 6 5 5 5 6 6 7 7
14 13 10 10 4 8 5 3 6 5 7 6 9 13 12 10 2 3 5 8 7 7 6 6 8 9 8 8 8 9 9 8 9 10 10 9 8 8 8 2 8 4 6 7 6 3 5 8 10 12 15 16 16 13 12 12 13 11 10 12 12 11 10 9 8 8 8 8 8 7 7 7 6 5 5 5 6 5 4 4 4 3 3 4 4 3 4 4 4 5 5 6 6 5 6 7 7
11 14 15 11 9 9 9 4 8 8 8 7 10 10 8 3 3 7 11 7 6 7 4 4 6 7 7 7 7 8 8 7 9 8 8 8 8 9 9 6 5 5 9 6 6 7 9 10 11 12 11 12 14 14 13 12 13 11 11 11 12 11 11 10 9 9 8 8 7 7 7 7 7 6 6 5 4 5 6 5 5 4 4 4 5 5 4 4 4 4 5 5 5 5 4 5 6
11 12 13 10 6 7 9 6 10 8 7 7 5 7 8 1 6 8 7 10 6 6 7 6 6 4 6 8 6 6 8 6 4 6 6 7 7 7 7 7 7 3 9 8 7 9 11 9 11 14 14 14 14 14 14 12 11 12 12 13 12 12 12 10 10 10 9 9 8 8 7 7 6 6 6 6 7 7 6 6 5 5 6 5 5 5 4 4 4 5 5 5 5 6 7 5 3
12 8 7 6 7 8 9 8 7 9 7 5 6 7 8 5 2 5 5 6 9 7 11 7 10 9 9 8 6 5 6 5 6 4 6 4 6 6 10 7 5 5 2 11 9 9 8 12 10 12 13 15 16 14 13 13 11 11 12 12 12 11 11 10 11 11 10 9 9 8 7 7 7 7 6 7 7 6 6 6 6 7 6 6 6 6 6 5 5 5 5 4 4 4 4 3 2
Wind_Direction
281 262 256 248 241 258 275 245 252 282 275 249 256 296 315 275 278 287 10 353 307 71 18 8 43 61 77 176 81 53 42 51 36 349 14 31 71 49 23 55 92 108 121 130 134 136 132 128 130 128 128 131 130 127 128 128 123 133 135 131 131 130 134 134 129 126 125 120 117 117 115 113 112 111 112 116 108 111 117 115 115 112 110 108 108 107 104 99 98 94 87 82 78 73 67 63 61
278 273 258 248 257 256 234 234 258 239 291 297 324 319 268 309 218 291 105 4 355 78 100 52 32 41 46 42 113 119 73 54 62 100 162 110 85 69 272 183 119 116 124 130 144 149 140 140 142 141 141 141 141 141 140 142 139 138 139 142 138 140 139 140 139 136 131 128 124 119 117 116 117 118 121 115 115 124 122 117 117 115 112 113 112 111 107 103 105 96 90 86 83 74 67 61 56
287 297 293 259 244 237 289 269 257 262 263 275 337 324 303 315 309 315 61 52 329 318 47 42 50 23 7 43 24 16 111 95 96 126 130 100 97 91 199 164 121 133 140 145 147 160 153 151 152 153 151 149 147 146 146 144 143 141 137 141 143 143 144 143 139 140 130 114 113 119 118 117 118 124 121 119 111 119 113 117 119 119 117 115 116 115 112 111 107 102 97 91 80 76 70 64 54
284 278 281 289 279 283 280 286 277 233 250 68 319 262 240 297 312 321 134 134 210 249 83 13 31 16 32 62 36 64 45 81 53 106 116 135 119 152 195 153 134 131 156 162 156 157 158 158 156 149 150 147 145 143 142 141 141 142 139 142 146 145 145 142 142 140 129 117 115 110 121 122 120 119 120 118 125 127 124 136 120 121 123 119 119 117 113 114 113 108 103 96 86 76 71 66 56
273 268 254 262 276 246 246 232 254 300 81 316 317 297 300 343 354 310 294 164 125 77 71 98 120 75 64 77 9 76 95 95 100 75 98 94 123 142 158 157 147 148 168 164 156 155 151 149 148 149 146 145 142 140 143 144 143 146 147 146 148 149 148 145 145 142 124 118 127 152 130 129 125 122 123 124 127 128 130 128 127 123 123 124 124 120 118 115 113 109 107 100 89 77 74 69 56
253 253 245 252 238 267 241 260 309 36 7 244 219 288 292 291 184 175 264 227 123 92 69 66 47 134 110 54 36 21 108 163 21 98 105 115 119 129 145 152 143 134 182 155 132 137 147 153 155 152 151 145 144 147 149 151 152 152 156 155 153 156 153 153 151 144 131 143 151 157 136 136 126 125 125 126 128 127 128 131 129 128 125 125 125 122 120 119 115 112 108 97 88 82 77 66 57
252 245 249 225 234 257 272 274 243 151 205 205 199 243 231 177 183 148 344 293 65 98 84 73 22 126 103 119 91 82 92 115 153 70 54 117 122 109 79 177 117 139 187 180 139 159 154 155 160 156 151 149 150 150 153 155 157 160 161 161 160 157 161 157 160 146 148 150 155 151 142 137 132 130 131 132 132 129 133 132 130 132 128 129 128 126 125 122 118 114 111 105 94 89 79 69 53
253 278 277 266 281 249 256 254 152 313 208 205 216 225 244 199 189 148 169 268 47 59 89 23 144 323 96 173 145 62 72 56 88 89 94 117 103 92 164 237 162 136 201 231 157 175 156 159 160 159 155 151 156 156 156 159 159 161 161 162 157 158 161 158 147 136 159 153 142 151 143 140 140 137 134 133 132 133 135 134 133 134 134 132 137 136 132 124 118 116 115 107 104 95 78 67 54
254 252 242 278 260 247 267 275 241 185 250 185 218 244 240 263 263 265 118 92 123 111 212 183 112 309 160 93 84 129 89 94 88 95 107 120 102 102 256 245 195 138 207 232 164 159 163 165 160 157 155 156 156 157 160 162 162 163 160 158 153 134 124 145 132 148 148 167 138 148 145 145 140 139 135 134 135 141 137 140 138 139 139 140 143 144 137 133 121 119 113 111 108 94 86 67 47
251 225 259 269 291 291 270 277 334 183 233 200 204 211 240 310 324 343 146 165 80 192 105 194 31 340 63 78 122 154 121 130 118 116 120 120 106 116 205 235 234 154 181 211 149 162 153 165 164 159 161 158 161 161 163 165 168 164 161 152 130 124 123 135 149 163 144 91 228 145 147 143 138 135 136 136 138 137 136 136 142 143 146 150 151 159 150 140 129 117 116 118 109 106 89 73 50
251 201 256 262 244 261 262 34 322 346 281 259 358 67 314 243 131 322 328 118 84 61 62 20 44 13 117 60 89 118 137 135 153 128 134 131 106 130 213 220 223 187 186 206 161 167 160 157 163 169 164 163 162 164 165 163 165 162 144 131 132 130 140 146 148 153 126 155 209 153 144 142 144 143 140 139 136 135 138 135 139 139 136 135 143 151 153 130 127 125 124 122 118 104 99 93 21
271 277 208 243 272 321 297 234 211 235 212 271 74 306 45 302 324 272 350 90 125 64 13 120 233 185 97 171 157 177 139 190 153 130 136 141 112 156 207 189 205 205 202 205 188 167 167 171 168 155 164 168 163 165 164 163 161 157 145 141 137 141 149 152 146 151 140 169 187 151 147 148 142 139 148 141 141 142 140 142 141 144 143 144 141 141 113 126 130 132 135 131 126 129 128 95 51
260 256 273 253 270 291 316 301 229 26 284 2 148 140 278 24 312 13 341 44 123 155 131 182 201 183 148 117 161 137 173 166 141 140 140 160 120 171 209 187 179 198 200 191 205 166 163 171 167 162 156 161 166 164 164 163 162 152 151 150 146 145 152 151 150 152 167 177 160 151 152 146 147 148 144 140 142 146 143 143 144 146 146 146 153 153 146 131 134 139 145 149 144 159 189 185 35
244 223 245 289 7 302 282 320 340 292 16 125 54 343 336 294 13 334 21 310 64 324 60 75 231 1 89 124 151 161 164 161 134 142 153 156 129 170 193 188 170 186 195 188 188 179 166 167 167 168 160 163 158 161 169 165 164 159 160 160 152 149 148 153 162 166 173 162 152 154 152 153 150 143 143 144 144 147 145 143 146 148 150 147 149 160 159 147 143 147 167 175 172 184 196 226 259
246 295 310 320 275 290 268 265 335 3 120 306 17 309 2 299 319 39 331 10 112 137 112 198 14 276 112 247 157 166 156 148 145 154 149 154 140 160 176 177 167 178 195 194 186 180 173 163 166 169 162 171 163 165 166 170 169 164 164 161 153 147 152 153 164 166 160 153 150 146 153 151 160 148 142 142 143 156 150 148 152 155 153 153 154 156 161 156 158 172 184 187 198 196 203 220 283
306 296 268 285 280 301 347 282 335 208 216 287 28 273 287 21 54 313 70 348 304 91 297 120 141 342 305 120 39 132 143 147 145 159 146 160 155 151 166 171 167 179 194 185 198 179 168 167 167 159 166 175 162 172 169 167 173 166 163 155 157 157 159 158 166 170 164 153 150 142 158 156 155 158 154 152 161 164 157 157 157 159 158 156 159 160 162 167 174 187 193 200 206 208 215 220 215
255 274 271 301 292 250 214 246 258 49 339 301 1 330 354 330 350 27 43 31 297 159 317 137 128 181 257 116 119 131 141 141 151 155 159 161 169 159 171 168 176 180 185 199 185 173 181 145 150 134 167 172 167 169 167 165 165 164 161 154 162 166 167 162 165 175 164 156 147 145 154 154 150 149 160 169 171 168 169 158 162 161 164 161 164 166 169 176 181 192 200 216 221 224 225 231 224
184 246 336 286 340 287 19 321 300 5 285 355 264 25 279 303 2 124 277 271 336 282 228 50 37 9 55 110 121 132 141 149 157 163 170 171 178 172 178 180 175 182 185 192 183 166 145 80 45 143 222 167 166 164 170 159 159 159 153 151 156 166 170 167 170 177 169 159 153 150 147 164 157 166 165 180 181 173 173 166 165 169 170 171 171 173 177 183 188 195 211 226 234 239 247 244 218
244 265 232 289 261 309 276 250 303 217 268 2 341 290 326 312 23 203 291 158 209 296 60 93 110 164 119 128 130 141 149 158 163 177 175 184 182 185 182 180 183 178 186 183 170 116 58 98 178 206 173 193 161 171 172 150 158 153 148 166 153 167 178 175 178 177 171 165 170 154 147 162 168 142 151 181 182 186 175 172 173 176 179 179 179 179 182 191 198 207 217 227 243 251 258 237 215
197 258 232 225 248 292 242 153 290 26 330 268 288 319 346 308 309 263 247 286 269 319 109 152 147 166 145 141 149 151 167 164 176 184 192 189 189 185 196 181 180 182 188 170 75 30 92 154 188 203 188 194 167 169 153 128 124 124 112 253 146 176 182 183 166 175 176 183 169 132 149 167 154 144 190 183 175 185 178 175 180 183 184 187 187 182 189 196 205 218 224 230 235 248 241 240 230
147 237 231 278 358 328 295 78 292 325 348 323 312 317 293 252 265 344 339 315 300 92 327 277 162 157 160 161 160 166 176 172 179 196 200 201 195 193 194 196 186 182 178 72 53 74 214 152 162 184 209 193 174 169 136 102 97 105 92 136 203 189 188 178 158 167 153 194 169 146 148 142 151 145 154 151 138 203 174 168 177 189 190 192 193 199 186 194 194 207 217 213 231 227 234 237 244
299 278 305 339 273 250 314 26 338 260 3 316 255 252 268 333 314 257 275 317 328 142 196 92 125 156 157 172 169 173 182 176 182 195 200 209 199 187 187 197 188 186 120 89 91 187 219 156 148 178 64 212 148 181 108 107 116 124 155 170 194 216 179 176 164 161 153 188 208 156 127 142 132 153 193 160 188 181 189 175 185 191 195 196 195 211 194 186 189 207 194 196 211 226 230 245 243
273 233 243 235 226 294 310 281 285 349 300 291 307 285 313 306 294 302 282 286 318 332 220 122 135 133 167 171 168 178 185 187 185 195 200 209 211 187 176 202 187 191 134 102 144 198 201 135 151 122 140 186 142 67 98 122 157 159 175 172 192 191 193 179 180 170 162 182 220 170 145 160 154 170 196 186 189 185 198 187 188 194 197 198 195 215 201 178 198 196 196 196 199 217 225 224 214
236 286 298 308 294 276 313 303 289 254 246 262 305 322 295 289 284 311 301 272 259 268 280 104 128 136 156 158 172 178 191 193 188 193 198 205 210 186 181 194 187 189 129 109 151 203 186 143 145 147 128 169 124 149 140 158 135 175 202 179 186 180 190 188 185 171 169 163 216 250 186 168 156 176 199 195 191 190 202 199 198 183 205 188 198 202 202 189 191 197 195 192 203 212 203 219 183
256 254 250 262 319 322 278 271 282 313 304 271 251 261 294 310 299 298 281 319 331 310 246 125 101 145 140 111 99 303 254 200 192 184 187 203 189 189 183 189 176 190 128 111 153 191 179 139 123 146 162 172 136 149 145 168 152 189 206 175 171 177 186 174 181 166 155 129 290 280 253 174 181 185 194 206 197 199 204 216 170 170 208 199 198 224 197 190 192 202 184 201 197 222 218 212 192
231 264 313 326 286 276 283 285 275 260 257 262 271 256 267 270 278 268 306 262 228 225 243 144 142 250 106 131 159 183 252 228 200 177 181 197 179 186 185 197 157 178 133 122 140 191 156 127 151 178 172 164 160 160 147 162 162 180 203 178 163 172 172 169 153 166 147 125 161 231 262 242 191 202 200 203 204 206 204 210 146 177 216 206 192 231 229 187 220 192 134 241 182 213 195 182 143
322 290 289 286 293 291 290 285 280 265 268 297 276 279 272 277 273 259 222 203 302 321 277 156 163 138 123 133 160 155 209 233 274 184 177 200 175 180 188 190 176 173 135 122 130 179 177 160 159 172 172 161 158 164 160 172 171 183 188 184 154 176 166 158 157 148 146 149 212 121 31 49 37 333 304 311 279 227 179 133 219 176 218 172 198 221 53 257 284 144 244 258 305 191 20 97 181
285 306 285 275 274 269 264 260 258 259 259 269 288 294 288 271 267 257 300 292 123 289 284 192 175 175 154 142 169 165 191 185 185 196 193 196 190 182 186 194 177 158 132 138 139 158 174 170 159 173 166 163 165 175 173 176 183 185 177 176 162 168 172 148 159 166 173 176 284 179 116 92 126 180 286 303 306 333 320 161 229 244 209 157 219 168 197 219 228 219 213 215 288 322 84 241 209
300 303 290 278 273 270 262 248 246 244 232 223 287 295 268 250 252 193 201 286 141 249 256 274 201 194 152 164 183 174 192 192 193 191 191 198 192 174 185 180 179 170 151 140 135 142 153 164 160 178 177 171 183 169 151 115 161 194 192 181 169 170 156 153 170 164 168 170 190 169 113 133 164 141 267 284 306 274 285 301 246 219 200 189 189 206 198 193 228 195 294 209 218 249 218 165 35
300 280 277 276 271 263 244 236 246 238 219 244 140 267 311 293 331 342 175 147 275 267 245 245 230 230 159 164 179 175 183 201 203 191 185 188 194 172 176 177 186 174 145 140 132 140 140 150 155 164 168 166 179 168 143 156 170 178 196 198 156 151 158 162 178 169 163 178 174 145 126 154 139 144 228 254 220 263 258 253 263 231 228 181 174 213 173 174 252 167 216 238 198 225 198 189 82
277 281 275 281 286 277 275 204 191 220 174 189 212 251 264 304 320 210 135 200 227 243 266 234 232 220 150 161 171 178 192 201 213 192 179 182 186 168 176 173 177 187 144 139 145 140 134 154 162 159 164 163 172 169 155 178 169 166 164 206 150 157 165 173 167 172 162 167 145 106 161 163 157 145 262 259 191 246 243 250 270 259 252 223 148 198 153 182 224 218 213 229 181 243 161 46 95
263 262 252 240 240 242 281 54 178 226 164 198 235 251 263 249 294 162 198 205 228 258 238 297 278 224 168 162 169 181 207 199 211 195 184 179 180 172 175 168 176 190 165 139 135 137 143 158 169 158 164 163 177 165 141 172 175 175 146 198 155 156 164 169 156 191 176 158 139 156 188 174 150 166 223 245 243 226 224 264 267 270 239 123 113 155 246 170 208 242 222 260 61 224 183 105 90
256 249 258 283 313 326 309 174 200 177 270 186 219 278 293 300 262 270 203 207 210 210 238 195 246 253 219 175 156 189 197 169 202 199 185 179 183 174 171 165 175 176 188 141 135 140 149 162 165 163 168 168 162 157 150 166 176 168 199 217 153 148 168 164 160 188 154 174 155 176 214 190 175 176 209 219 238 228 230 244 281 282 274 136 220 170 216 216 186 195 302 299 232 281 237 136 121
273 273 269 257 248 254 260 145 191 185 170 238 231 248 254 276 307 296 284 251 214 263 285 274 221 211 213 192 183 189 185 167 193 192 183 184 183 173 168 165 166 173 184 159 137 147 153 159 164 163 154 158 153 156 151 159 177 165 193 229 162 174 180 167 166 175 179 187 180 184 205 208 194 189 200 206 224 232 234 237 251 276 259 229 206 187 197 248 178 167 179 275 298 274 282 139 128
280 286 298 306 313 311 318 320 315 325 248 232 263 269 264 253 257 257 262 265 242 212 237 220 258 244 180 200 193 210 194 167 190 187 180 181 177 162 164 162 164 169 172 173 147 143 142 147 154 154 150 148 164 158 162 165 162 150 114 122 229 199 179 194 186 182 181 183 196 188 207 217 201 196 193 206 199 225 228 231 235 248 224 240 196 187 235 246 224 163 156 183 256 270 281 122 134
273 292 290 294 298 302 293 295 290 297 316 306 265 287 296 298 293 298 294 298 305 237 191 201 202 241 233 192 194 196 216 188 178 181 177 175 169 160 160 161 164 168 167 172 165 142 140 140 137 145 151 152 157 172 162 154 154 155 174 173 192 201 205 189 188 186 180 190 208 194 202 216 223 212 196 193 197 216 225 210 225 229 228 281 235 214 222 226 232 164 165 193 193 248 276 90 172
285 281 284 292 293 285 285 280 294 289 289 281 282 275 278 287 294 292 297 307 289 278 268 237 222 207 207 204 190 193 201 198 157 169 170 169 160 157 157 162 166 168 167 172 172 157 146 160 157 162 166 159 166 169 164 158 165 162 175 184 192 189 204 187 184 165 183 198 216 205 198 198 240 245 210 196 199 208 214 218 205 221 214 211 226 227 238 233 212 172 165 186 210 197 258 197 137
263 285 295 287 282 280 277 275 266 282 280 268 261 251 256 276 279 269 275 288 281 293 295 213 177 205 192 196 214 202 192 204 165 153 159 167 159 159 158 161 168 168 174 173 181 172 159 157 166 164 161 163 169 167 159 167 174 177 177 182 179 190 180 199 177 170 142 135 252 228 208 203 224 216 221 197 202 203 206 202 201 204 208 198 243 263 274 282 305 181 170 179 214 227 201 269 53
295 292 292 289 280 282 279 271 267 266 263 281 287 287 290 287 284 286 283 266 262 274 281 288 261 168 198 216 197 197 215 180 151 146 163 173 165 160 167 165 169 173 168 176 178 175 176 156 167 166 166 170 165 168 162 184 186 186 178 166 177 177 189 188 177 164 148 179 206 197 213 210 211 221 191 190 216 200 206 201 207 188 190 186 187 222 250 289 39 343 178 183 188 224 136 42 54
276 270 257 257 270 266 267 264 271 257 252 260 243 279 282 279 271 271 262 254 243 218 275 263 243 163 180 228 222 192 220 174 145 156 166 171 164 164 170 172 171 167 166 175 178 185 179 173 162 162 171 175 170 159 180 175 174 146 176 163 170 172 167 156 166 177 158 170 198 197 219 224 180 217 184 180 196 188 216 197 183 177 200 171 163 185 202 216 33 17 330 24 67 42 41 38 26
246 244 250 256 261 264 268 290 297 304 299 309 311 273 253 245 256 268 274 307 307 241 220 235 144 119 326 220 222 217 195 163 158 162 157 161 168 172 175 175 167 172 171 177 177 184 186 179 168 158 171 174 168 164 165 161 155 162 159 173 141 116 57 47 195 213 189 202 195 193 220 213 194 193 195 184 191 194 194 189 168 182 177 178 128 156 190 182 153 82 348 27 36 26 25 45 114
280 273 275 279 283 288 291 295 288 291 298 292 281 264 260 279 266 250 334 311 286 314 314 308 298 160 191 240 208 227 270 156 167 162 162 167 170 167 176 173 176 178 177 175 177 182 179 182 171 161 161 166 171 169 158 159 158 160 161 172 163 177 184 186 205 198 195 204 199 203 203 198 200 198 194 193 195 183 188 186 167 171 188 185 156 181 182 112 111 81 58 69 118 199 146 180 253
275 277 283 295 307 310 315 299 295 276 269 261 253 263 269 247 253 235 230 278 286 275 245 268 288 244 194 199 219 208 203 212 161 144 156 164 167 172 177 180 179 184 176 169 171 177 181 179 177 163 165 161 172 168 151 159 159 168 174 174 170 176 180 199 204 198 194 196 194 194 195 189 202 191 187 204 196 192 176 189 172 172 185 181 170 161 108 135 120 120 129 143 164 144 203 167 177
264 276 268 264 266 273 280 277 269 274 271 272 277 285 301 298 288 281 250 253 272 274 292 335 312 287 283 293 205 191 205 208 143 145 158 164 171 177 181 179 183 181 173 167 168 173 179 179 174 162 167 168 171 169 169 170 163 168 174 173 171 177 185 184 195 183 189 193 197 192 183 199 208 187 184 203 191 191 187 182 191 171 175 178 180 144 157 150 126 162 108 78 42 36 341 293 171
282 287 295 312 308 295 274 266 267 275 283 284 274 273 268 261 288 285 251 250 264 265 142 18 270 269 251 249 280 168 186 195 140 157 167 172 182 181 175 179 176 175 175 172 170 173 173 176 177 168 165 169 172 166 173 174 171 168 173 176 174 184 184 181 179 176 185 184 206 180 194 194 205 209 191 201 222 202 175 193 189 187 175 180 179 140 164 165 151 81 89 108 135 44 229 228 237
259 267 281 276 265 253 271 282 285 280 279 273 269 265 265 266 276 288 286 254 318 344 279 223 294 16 25 35 30 58 72 72 132 169 171 183 178 175 174 167 172 174 172 172 166 164 170 172 176 173 169 170 169 168 174 175 173 169 176 179 178 180 171 181 174 179 185 183 195 183 194 190 193 195 202 203 211 219 210 187 189 200 187 183 155 174 120 98 132 141 139 149 164 165 209 206 192
324 312 288 278 276 278 273 265 263 263 249 261 265 266 268 279 264 286 309 216 179 338 198 304 17 18 24 33 25 352 118 69 29 164 179 178 173 165 162 170 171 163 162 171 170 168 169 172 175 177 173 174 171 172 175 175 177 179 178 180 179 179 176 168 162 185 189 178 192 189 197 183 208 206 188 198 211 224 203 196 198 192 175 170 152 169 138 163 140 135 164 164 179 173 184 162 154
290 289 287 290 283 283 273 265 260 264 264 259 255 260 260 262 280 280 302 324 267 210 57 53 43 47 37 28 29 21 15 9 39 16 158 154 159 159 166 169 168 167 162 168 178 172 170 172 174 178 174 177 169 174 181 177 183 181 179 176 180 183 178 159 176 185 183 184 189 183 189 179 186 224 221 179 235 265 239 200 188 177 178 183 185 165 141 153 170 171 171 167 163 179 186 169 149
258 260 265 275 287 279 279 282 261 252 265 276 308 343 328 322 317 295 186 47 52 55 56 58 65 57 49 39 40 28 21 21 16 23 48 165 159 161 170 169 169 173 170 171 175 180 173 173 175 177 181 178 170 177 179 180 182 180 179 178 181 183 172 161 183 181 172 180 184 183 178 193 188 194 197 206 212 233 252 259 181 172 195 187 182 177 153 159 165 171 172 174 166 170 179 168 160
256 258 265 264 269 274 277 280 289 285 264 345 321 327 279 345 288 302 359 99 89 78 68 68 66 62 52 49 36 33 28 21 20 7 30 33 156 172 169 171 177 172 174 172 175 181 183 175 175 178 181 180 171 178 183 184 184 181 180 179 181 180 180 172 180 182 174 185 178 187 187 189 194 200 193 206 205 214 224 236 218 204 193 175 176 189 178 161 156 164 173 167 170 172 168 178 173
272 270 261 248 258 263 279 277 277 287 317 307 316 307 276 359 277 284 308 72 86 74 80 93 82 64 62 51 47 42 28 25 15 20 10 53 193 174 172 180 179 175 174 177 174 179 191 181 175 177 179 183 176 177 182 187 184 182 180 183 182 184 181 176 176 178 177 185 185 189 190 189 194 195 200 192 195 203 209 210 215 208 190 189 184 177 184 149 145 160 179 171 162 171 186 160 190
278 271 259 264 274 288 269 288 286 295 301 284 281 274 238 209 231 290 27 71 73 93 86 81 74 69 58 55 46 38 34 27 16 15 8 31 293 177 168 177 180 179 176 178 181 180 190 195 181 179 181 184 182 182 182 185 184 180 182 184 187 185 182 179 181 179 177 185 188 190 187 189 196 192 196 188 188 198 202 199 203 197 196 199 199 192 182 154 157 175 165 156 169 176 161 195 202
282 295 261 267 268 254 267 281 265 278 261 255 260 250 252 275 219 73 34 7 84 77 73 67 69 67 62 58 57 46 42 35 25 16 8 358 24 161 207 188 192 186 180 183 184 183 192 197 192 182 181 185 190 180 184 184 181 182 184 186 184 187 185 184 186 183 181 181 185 187 196 190 186 187 183 188 199 203 204 198 186 192 193 192 195 198 193 169 167 165 154 162 180 190 153 181 219
286 272 277 287 272 272 268 277 282 270 270 275 270 272 272 265 286 201 139 98 73 73 62 71 75 76 71 61 56 51 42 38 29 26 17 4 354 0 250 205 194 189 186 181 185 188 191 200 206 192 183 184 191 185 184 182 183 186 186 185 186 187 188 188 189 187 183 180 181 184 193 202 205 187 178 178 197 212 206 213 197 190 183 183 191 198 201 191 168 161 167 176 193 197 166 171 196
259 267 291 277 278 272 260 273 262 265 266 280 272 285 285 275 317 16 88 97 109 93 94 88 76 70 69 67 63 57 43 34 27 20 20 6 2 351 357 12 188 160 92 99 131 129 233 226 216 212 196 186 185 188 190 182 183 186 187 187 186 186 185 189 190 191 186 189 182 184 191 200 200 200 201 189 193 203 200 203 211 196 183 186 190 202 202 204 191 175 176 183 192 195 184 179 174
235 254 252 246 269 271 278 230 246 259 273 286 276 269 274 353 118 119 109 95 89 106 20 42 90 70 72 69 49 49 47 37 28 25 13 2 6 359 358 351 331 176 143 179 179 188 213 225 217 215 217 197 185 189 189 189 185 187 187 186 189 188 186 188 189 190 188 191 193 190 194 198 198 197 197 197 192 198 199 195 195 201 200 193 190 196 199 198 192 188 179 191 180 200 200 224 191
254 248 243 222 241 257 259 253 248 243 260 255 273 274 273 90 114 118 129 132 132 129 140 159 119 117 93 80 66 38 35 20 30 24 14 7 3 1 355 358 335 292 148 165 170 187 204 220 222 210 210 202 194 190 188 191 187 190 186 187 187 187 186 187 187 190 189 191 198 199 199 195 197 202 190 187 195 206 200 194 195 196 209 201 193 193 181 189 197 196 189 194 191 194 210 205 201
252 274 294 291 260 249 244 261 269 262 246 239 241 251 250 93 227 100 143 181 154 192 147 201 131 114 117 100 75 53 33 7 351 38 9 350 13 16 6 10 344 349 269 164 188 185 205 216 231 221 203 207 200 193 191 188 191 191 191 189 189 187 188 187 187 188 192 193 193 197 196 198 200 199 196 199 203 195 198 191 198 206 204 212 200 200 179 184 202 199 197 192 199 199 200 209 181